GFSNE_sfc_dewp_225.txt.gz
Dewpoint
41 41 42 43 44 45 45 45 44 41 41 42 44 49 53 54 52 52 50 50 48 48 49 50 51 51 51 52 52 53 53 52 52 53 53 53 53 50
40 39 39 39 39 41 42 42 43 43 41 41 43 45 46 48 51 50 50 49 48 47 47 48 48 49 50 50 50 50 51 51 51 52 52 52 48 46
37 37 36 37 37 37 37 38 38 38 37 39 41 43 44 45 47 48 49 49 49 46 46 47 47 48 48 47 48 48 49 49 50 51 50 48 46 44
37 35 35 35 37 37 37 36 37 38 37 35 37 39 40 43 45 45 46 48 48 47 46 46 46 46 45 45 45 46 46 46 46 47 46 45 44 45
36 35 35 35 34 35 35 35 35 35 37 37 37 39 40 41 43 45 44 45 46 46 44 45 45 45 44 43 43 43 42 40 39 39 41 43 43 41
34 33 32 32 33 34 34 34 34 34 34 35 36 37 39 42 43 41 38 41 41 44 43 42 42 42 42 41 41 40 38 37 38 39 38 37 37 37
32 31 32 33 34 33 33 32 32 32 32 31 32 35 36 37 37 37 37 35 32 37 38 39 39 39 39 39 39 38 37 37 37 36 35 34 34 33
30 31 30 31 30 31 31 31 32 31 30 30 30 31 33 35 35 35 33 32 30 33 31 30 32 31 32 33 36 36 36 36 37 35 34 33 31 31
30 29 29 29 30 30 28 29 31 32 30 31 30 30 31 33 33 32 32 30 28 30 30 26 30 29 32 34 36 35 35 34 34 34 34 32 30 27
29 29 28 29 30 30 25 23 29 30 31 31 31 32 32 32 32 31 30 29 30 30 30 24 28 27 30 32 35 35 34 33 33 35 32 30 28 26
29 25 29 28 29 30 24 23 25 27 29 30 31 32 33 34 32 31 29 28 27 27 30 26 25 25 28 30 32 33 32 31 32 33 34 30 27 27
28 26 26 28 28 29 25 24 24 25 26 25 25 26 28 30 31 32 31 28 26 26 29 25 25 25 22 26 28 29 30 31 31 31 34 31 28 26
27 23 25 29 28 29 28 27 27 27 26 24 24 24 24 25 26 27 27 28 26 25 30 28 26 25 23 21 24 26 27 28 29 30 34 29 28 27
27 19 19 29 28 27 27 28 28 26 24 23 22 22 22 22 23 24 25 26 26 26 30 29 26 25 23 21 20 23 24 26 26 26 27 27 24 22
26 22 28 27 25 22 27 25 19 20 20 19 20 21 22 24 25 25 25 25 23 23 26 30 27 25 24 21 20 21 21 23 25 24 23 22 21 21
21 16 16 17 12 10 13 16 16 13 14 14 17 19 22 22 19 19 18 17 16 17 18 21 21 22 21 21 21 19 19 18 21 21 20 19 16 15
13 11 11 9 7 7 7 9 6 9 11 6 9 15 19 20 20 22 19 16 14 14 16 17 16 18 18 16 15 15 16 16 16 16 13 13 14 13
12 8 6 2 6 3 3 5 3 4 4 7 9 9 11 18 20 20 19 17 16 16 16 18 18 17 17 18 19 15 14 13 14 12 12 11 11 12
14 8 8 6 6 3 3 3 7 5 3 4 4 7 10 14 17 17 18 18 17 17 17 17 15 14 10 6 11 17 12 12 11 9 11 11 10 11
18 15 12 12 11 10 5 7 6 5 6 6 5 4 5 10 13 15 15 14 14 13 12 13 13 13 10 6 4 5 15 8 6 3 4 8 10 13
20 19 18 18 16 13 9 6 6 5 5 5 4 4 0 4 1 5 7 7 7 7 6 5 4 7 8 7 1 -1 1 14 10 5 1 -5 -4 0
22 22 21 20 19 16 11 7 4 3 3 3 0 -1 -3 4 -1 -3 -4 -1 -1 -0 2 1 3 6 5 5 -3 -11 -8 -7 3 5 5 2 -4 -8
21 23 21 19 18 16 16 14 14 6 9 10 8 5 1 2 -3 -2 -6 -3 -0 -4 -5 -2 -2 0 -2 -0 -5 -10 -12 -12 -10 -6 -6 4 5 7

GFSNE_sfc_dewp_231.txt.gz
Dewpoint
45 44 44 43 43 42 42 42 40 37 35 37 39 43 39 39 39 41 41 42 43 43 44 46 49 51 52 52 53 55 57 57 56 57 58 58 59 59
42 41 41 41 40 41 41 39 39 37 35 36 36 38 38 36 38 40 40 42 42 43 43 44 46 48 50 50 51 52 55 56 56 56 57 58 57 59
40 39 38 38 38 38 37 36 36 36 35 35 36 36 38 38 37 39 39 40 41 42 43 43 44 45 47 47 48 49 51 53 54 55 56 56 57 56
37 37 36 35 36 36 35 35 35 35 34 33 34 34 35 36 36 37 36 38 41 43 43 43 43 44 45 45 46 46 48 50 51 52 52 54 55 54
36 35 34 34 35 35 35 35 34 33 34 33 32 34 34 35 35 35 36 38 40 40 41 42 43 44 45 45 45 46 47 46 46 47 47 47 48 51
35 35 34 33 33 34 33 34 33 32 32 32 32 32 32 33 34 34 33 37 37 34 35 35 37 40 44 45 45 45 46 46 45 43 42 43 43 44
34 32 33 32 30 31 32 32 32 31 31 31 31 31 31 31 31 33 33 35 36 33 32 33 34 34 38 42 46 45 43 43 42 41 41 40 40 40
33 33 32 31 30 29 30 30 32 32 31 30 30 30 30 32 32 32 32 32 32 35 32 31 32 31 33 36 41 41 40 40 39 38 38 38 37 37
33 33 32 33 32 34 31 28 31 30 30 31 30 30 30 32 32 31 32 32 31 33 33 31 33 30 32 33 36 38 38 38 37 36 36 35 34 34
33 32 31 31 31 32 32 32 32 32 31 30 32 32 32 32 32 33 33 33 35 35 34 30 33 32 33 32 35 35 35 35 35 35 34 34 33 32
31 31 30 31 28 29 31 30 31 32 29 27 28 28 28 28 30 34 32 31 31 31 33 30 31 29 31 32 33 35 35 35 34 34 33 32 31 31
30 28 26 30 28 27 30 30 30 31 29 30 31 30 30 31 28 31 31 30 29 32 32 29 31 31 26 30 32 33 33 34 34 33 32 32 32 31
31 29 28 28 29 28 27 29 28 28 28 27 27 29 29 30 29 30 30 29 30 28 31 32 30 29 27 26 28 30 32 34 33 32 30 31 31 29
34 32 33 29 28 27 27 25 25 26 28 28 28 28 28 28 28 28 29 28 29 30 33 33 30 29 27 25 24 28 30 32 32 31 31 32 30 30
34 31 29 27 26 28 24 22 24 29 30 30 28 27 27 28 27 30 29 27 26 27 28 30 30 29 28 24 24 26 26 28 28 28 27 26 27 25
30 30 27 26 23 24 27 27 27 27 26 27 28 28 29 28 24 23 26 26 25 25 24 25 28 26 26 26 24 24 24 23 25 24 23 20 16 15
30 30 30 30 30 30 30 26 28 28 28 28 27 27 25 21 21 23 24 24 23 22 23 22 21 21 23 23 22 22 21 20 20 19 17 14 13 12
30 30 30 30 30 30 30 29 28 25 28 28 28 28 27 25 23 22 21 22 22 21 22 23 22 21 19 19 20 18 17 17 17 13 13 14 13 12
32 30 31 29 29 29 30 29 28 28 23 26 27 27 27 23 25 24 24 22 20 19 19 19 17 17 17 17 18 17 16 16 15 15 10 9 8 8
29 30 30 29 28 28 28 28 27 26 26 26 26 27 27 26 25 24 24 22 21 19 18 17 16 17 18 19 17 17 15 16 14 14 13 11 11 10
29 29 30 27 26 27 28 29 29 28 27 26 26 25 26 26 24 24 22 19 20 20 17 16 16 12 16 17 17 16 17 11 10 12 13 13 12 11
29 29 28 26 27 27 30 29 29 26 26 25 26 26 27 26 23 22 23 23 21 20 18 18 18 18 17 14 13 12 17 16 11 7 7 7 11 10
31 30 30 28 28 28 27 28 27 28 26 26 25 26 25 24 23 23 22 20 19 18 17 17 18 17 15 14 13 15 8 10 13 13 13 3 4 5

GFSNE_sfc_dewp_234.txt.gz
Dewpoint
48 47 46 44 45 44 43 42 40 37 35 37 38 42 39 40 39 40 40 42 41 41 43 44 45 46 46 48 49 51 52 54 55 56 56 58 58 59
44 44 44 43 43 43 43 41 41 39 37 36 36 38 39 36 38 39 39 41 41 41 41 42 43 45 46 46 47 48 50 51 52 53 55 57 57 58
43 42 42 42 41 41 41 40 39 38 36 36 36 37 39 38 37 38 38 38 37 40 41 40 42 42 43 44 45 46 47 49 50 51 53 55 57 57
41 41 39 36 40 40 39 39 39 38 36 35 35 35 36 37 37 37 35 34 37 38 39 39 38 38 39 41 42 44 45 45 46 48 50 52 56 57
40 39 38 39 39 39 38 37 36 34 36 34 34 35 35 35 34 35 35 36 35 38 37 36 36 37 37 39 41 43 44 44 44 45 47 49 51 53
39 38 37 37 38 38 36 37 35 36 35 34 34 35 34 34 34 34 33 34 36 34 36 35 35 35 36 37 40 43 44 44 44 44 43 43 44 47
37 35 37 34 31 32 33 36 35 35 34 34 35 33 34 32 32 33 32 34 38 36 35 35 36 34 34 35 39 44 44 44 44 43 43 42 42 42
36 36 35 32 32 30 30 30 31 33 34 34 33 32 33 33 33 32 33 32 32 39 35 35 37 34 33 34 36 41 40 40 40 40 40 39 39 38
36 36 35 35 34 36 33 30 30 30 30 32 32 32 32 33 32 32 33 33 32 35 35 34 36 34 33 33 35 36 37 36 36 36 35 35 34 34
36 35 34 34 34 32 33 34 34 34 33 32 33 33 34 33 32 32 33 33 35 37 36 31 35 32 34 33 35 35 34 35 35 34 34 34 33 32
34 34 33 33 30 29 32 32 32 33 32 29 28 28 28 29 30 33 33 33 33 33 36 33 33 33 33 32 33 35 35 34 34 34 34 33 32 31
33 33 29 31 28 28 32 32 31 32 32 31 32 32 32 33 30 32 30 30 30 33 34 33 32 33 31 33 33 34 33 34 34 34 34 34 30 28
34 32 30 30 29 28 27 30 30 30 30 30 31 31 31 31 31 30 32 30 29 30 33 33 33 31 30 30 31 33 34 33 33 32 31 32 32 28
37 36 35 29 28 27 28 24 25 28 31 31 31 31 30 30 30 30 30 29 29 28 31 32 32 30 30 29 28 32 33 34 33 31 31 28 28 29
36 33 32 29 28 28 23 22 25 31 32 32 31 30 30 30 28 31 29 28 28 27 28 30 29 29 28 28 28 29 28 30 29 27 26 26 26 26
32 33 32 31 30 31 30 30 31 32 31 32 32 32 31 29 24 26 27 28 27 27 25 27 27 26 27 27 26 25 25 25 26 25 24 23 20 19
32 32 32 33 33 33 34 32 34 33 33 34 32 31 28 24 24 26 27 26 25 24 25 24 22 23 24 24 24 23 23 23 23 23 21 17 15 14
32 31 32 32 33 33 32 32 32 29 32 33 33 32 31 30 27 25 25 26 25 25 25 25 25 25 22 21 22 21 21 20 19 15 14 16 14 12
33 32 32 32 33 34 34 33 33 33 30 31 32 32 32 29 30 30 29 26 24 22 22 22 20 19 21 20 21 18 19 19 18 17 12 10 9 9
33 32 32 32 33 33 32 33 32 31 30 30 31 31 31 31 31 29 29 28 26 23 23 21 20 21 22 23 22 19 16 20 19 19 17 16 16 12
33 32 34 33 32 31 33 34 33 32 32 31 30 29 30 29 29 29 28 22 24 25 22 21 19 17 22 22 21 20 21 11 11 15 16 17 16 17
34 32 32 33 33 31 33 33 31 30 30 30 30 30 30 28 27 26 26 25 26 26 23 22 23 22 21 19 18 16 22 20 15 9 7 8 14 15
36 33 34 33 33 32 30 30 29 32 29 28 28 28 28 27 26 25 26 25 23 22 22 22 21 21 19 17 16 20 13 16 19 18 19 9 2 4

GFSNE_sfc_dewp_237.txt.gz
Dewpoint
51 50 47 45 45 44 43 42 41 37 35 36 37 41 39 40 40 39 40 42 41 43 43 42 41 42 42 43 44 45 46 48 48 49 50 53 54 55
47 47 45 44 44 44 44 42 41 39 37 37 36 38 39 37 38 40 39 41 40 42 41 40 39 39 39 41 41 42 44 46 47 48 49 50 51 53
46 45 44 44 42 41 41 41 39 39 36 36 36 38 39 38 37 38 37 36 36 40 39 38 39 38 37 37 38 39 40 42 44 47 48 49 50 51
44 44 42 39 42 41 39 40 39 39 36 36 36 36 36 37 37 36 34 33 35 37 38 38 37 35 35 35 37 37 39 40 41 44 47 48 49 51
43 42 41 41 40 40 39 39 38 35 36 35 35 36 36 35 34 35 34 34 33 37 35 36 35 34 35 37 37 37 40 41 41 42 43 44 45 47
43 41 40 39 39 39 37 38 35 37 35 34 35 35 34 35 33 33 32 34 35 35 34 34 36 34 34 36 36 38 40 42 43 42 42 42 42 44
41 38 40 35 33 33 34 37 36 35 35 35 35 35 34 33 32 33 32 34 36 37 36 37 36 33 32 34 34 36 38 40 42 42 42 41 42 45
39 38 35 33 32 31 31 30 31 33 35 34 33 33 33 32 33 32 33 32 31 39 37 37 37 34 33 34 36 35 35 36 37 36 36 36 37 38
38 37 36 33 35 36 33 30 30 30 30 31 32 32 32 31 32 31 32 32 34 37 36 35 37 34 34 33 36 35 35 35 35 34 34 34 34 34
37 36 36 36 35 35 34 34 34 33 33 32 33 34 32 31 31 32 33 33 35 37 37 32 37 34 34 34 35 35 35 35 35 35 34 33 33 33
36 36 36 35 31 30 33 32 32 35 33 31 30 29 30 30 31 32 31 31 33 35 36 33 35 34 34 33 33 35 34 34 35 35 34 33 32 31
35 35 31 33 30 29 33 32 32 32 32 32 33 33 33 34 31 32 30 29 29 32 33 31 34 33 32 35 34 33 34 34 34 34 35 34 30 29
35 35 32 30 29 28 29 32 31 31 30 32 31 34 34 32 31 31 33 30 27 28 31 32 33 33 31 30 32 33 33 33 32 31 31 31 32 27
37 38 36 30 30 29 28 24 24 27 32 31 31 31 31 30 31 31 31 31 29 27 31 33 33 31 31 29 29 31 32 32 30 29 30 28 27 28
38 35 33 30 30 28 24 22 25 31 31 31 30 31 30 31 29 33 31 30 30 27 27 31 30 30 30 27 28 28 27 29 29 27 26 25 26 25
33 34 33 32 31 33 28 27 31 32 31 31 30 31 31 30 25 25 29 30 29 28 25 26 27 27 26 26 25 25 25 25 26 25 22 19 17 18
34 33 32 33 32 34 34 35 34 33 32 34 33 31 29 26 25 26 26 25 26 25 25 25 23 23 23 23 24 24 23 22 20 20 18 16 15 14
32 32 32 32 32 32 33 31 31 31 34 33 33 32 31 30 27 25 25 25 25 24 25 26 26 27 24 22 22 21 21 20 20 15 14 16 13 11
32 32 32 32 33 35 34 34 33 32 33 32 32 31 31 29 29 29 28 25 24 22 21 22 21 19 20 21 22 19 20 20 20 19 15 13 12 12
33 34 33 33 33 33 33 33 33 31 31 31 31 31 32 30 29 27 27 27 25 23 23 22 21 21 22 24 23 19 14 19 19 20 19 18 18 14
33 34 33 33 33 33 33 34 34 32 30 28 29 28 30 30 28 28 27 24 24 23 22 22 19 18 22 23 23 21 21 14 12 13 15 17 17 18
33 34 33 33 34 34 35 34 33 32 29 28 29 30 29 30 28 26 26 25 25 25 23 23 23 22 20 18 19 18 22 21 18 14 9 6 13 14
35 34 35 35 35 34 32 32 30 32 31 30 30 29 31 28 28 27 27 25 23 22 21 21 21 20 19 17 16 18 16 17 19 19 20 14 12 8

GFSNE_sfc_dewp_243.txt.gz
Dewpoint
48 46 45 45 45 44 43 42 39 36 36 38 38 40 40 39 39 36 37 41 40 39 38 36 36 37 37 38 38 38 39 40 40 41 42 43 46 47
47 45 45 44 44 44 43 42 41 40 37 37 38 38 37 35 37 36 35 36 39 39 38 36 36 35 36 36 37 38 39 38 38 39 41 42 46 47
45 45 44 44 43 42 41 40 39 38 36 37 37 37 36 34 34 35 34 33 35 38 38 37 35 34 34 36 37 37 38 38 38 39 39 41 44 47
45 44 44 43 41 41 40 38 38 38 36 35 35 36 34 34 34 32 32 31 33 37 37 36 34 34 34 34 35 35 35 37 38 37 38 39 41 45
44 43 42 41 40 39 39 39 38 37 36 34 35 34 34 32 32 32 31 32 31 36 36 36 33 33 33 34 33 34 34 35 35 36 36 36 37 41
44 43 43 41 40 39 38 37 37 35 35 35 34 32 31 31 31 29 29 30 31 34 33 35 33 32 32 32 33 33 33 34 34 35 36 35 35 39
40 38 38 38 37 38 37 37 35 34 33 32 29 26 26 25 27 30 29 31 29 32 29 30 30 30 30 32 32 32 32 33 35 34 35 35 35 35
36 35 35 35 34 34 34 34 35 33 31 28 25 26 25 28 29 29 29 28 28 30 34 25 30 29 29 31 32 30 31 32 35 34 34 34 34 34
34 33 33 33 32 31 32 32 32 32 30 30 27 25 28 29 29 29 28 27 28 32 32 25 30 23 28 31 31 30 30 30 33 33 34 33 34 33
34 34 33 32 31 31 30 30 30 30 31 31 29 28 29 30 30 30 27 22 24 32 25 21 24 31 29 30 31 30 30 30 29 31 32 32 32 33
35 34 34 33 34 35 32 31 30 31 33 33 32 32 32 32 30 29 26 21 16 31 23 27 21 25 30 29 30 30 29 29 29 29 30 31 30 28
35 34 34 33 34 34 32 31 30 30 30 30 30 32 31 30 30 29 27 25 23 18 22 28 19 26 22 22 22 25 27 28 28 28 29 27 27 29
34 34 32 32 33 33 32 32 31 31 31 30 30 29 29 28 26 25 27 25 21 19 25 30 29 23 21 24 19 22 23 25 25 25 25 24 25 24
33 33 32 32 32 31 28 29 29 29 30 30 31 31 29 26 25 25 26 29 24 25 25 27 22 24 17 16 16 20 20 24 23 22 23 20 21 22
33 32 31 31 30 29 27 26 25 28 29 28 30 29 27 27 27 27 28 28 25 25 25 26 25 24 21 17 15 14 16 20 22 21 20 19 17 18
31 31 29 28 25 25 25 25 29 29 29 28 29 30 27 27 26 28 26 28 26 21 25 24 24 24 19 20 21 15 18 15 20 20 21 19 16 14
30 29 28 28 27 27 26 26 27 27 26 25 24 25 26 27 25 25 26 26 24 21 20 23 22 22 21 21 16 18 17 16 18 19 18 19 17 16
29 28 27 27 28 27 28 29 27 25 23 23 21 21 22 22 24 25 25 23 21 21 20 19 21 19 21 20 20 17 16 16 17 20 18 18 17 16
29 28 27 27 28 29 29 28 27 26 23 23 21 18 19 17 16 18 19 22 21 21 21 22 22 21 15 7 11 16 15 14 16 13 18 16 18 14
29 28 28 29 29 29 30 29 28 27 28 23 17 20 16 17 16 17 17 13 16 18 18 19 19 19 14 14 9 8 16 9 9 6 9 12 16 16
30 30 30 30 30 31 31 31 30 29 28 22 19 21 26 15 13 14 15 12 12 15 13 12 11 13 15 15 10 7 9 19 14 9 7 2 4 7
31 31 31 31 31 31 32 32 30 29 29 27 27 27 27 18 17 14 11 10 10 12 12 12 13 16 16 16 9 1 7 7 15 20 16 12 6 -0
32 32 32 31 32 32 32 31 30 29 28 27 27 27 27 23 15 21 12 10 21 14 10 11 13 11 11 12 6 4 2 3 5 6 9 19 18 16

GFSNE_sfc_dewp_246.txt.gz
Dewpoint
49 50 49 45 45 44 44 41 38 35 35 37 37 39 38 38 38 38 38 39 38 37 37 36 36 37 37 37 38 39 40 41 42 42 43 42 43 43
48 46 45 44 44 44 43 42 41 38 36 37 37 35 35 35 36 34 34 36 38 38 37 35 35 36 35 36 37 37 38 39 39 41 42 42 43 43
47 45 45 44 43 42 41 40 40 39 36 37 37 36 33 34 33 33 33 32 34 38 36 35 34 34 34 34 34 35 36 37 38 39 40 42 42 43
48 44 43 42 41 40 40 38 38 38 36 35 36 34 32 32 32 31 31 31 32 36 36 34 34 34 33 33 33 33 33 34 34 36 37 39 40 41
48 45 42 41 40 39 39 38 38 37 36 35 33 34 32 31 30 30 30 30 31 35 36 34 33 33 33 32 32 33 32 33 33 34 35 36 38 39
46 43 42 41 40 39 39 37 36 36 35 34 32 30 29 29 29 27 26 29 29 34 33 35 32 32 32 33 31 32 31 32 32 32 32 33 35 36
43 41 41 41 40 38 37 36 35 34 34 31 29 25 24 24 26 28 25 25 30 33 33 29 29 28 30 31 30 30 31 30 31 31 31 32 35 36
38 37 38 39 38 37 36 36 35 33 30 27 23 23 25 25 29 28 22 26 27 30 30 30 32 30 30 31 30 30 29 31 30 33 31 30 32 34
36 34 34 35 34 33 34 34 34 33 30 29 27 25 25 28 27 22 22 28 28 30 24 27 32 29 30 31 30 30 29 29 30 30 31 29 29 31
36 35 33 31 32 32 31 31 31 32 31 31 28 29 29 28 28 28 24 20 26 31 22 18 17 30 30 24 30 29 28 28 28 29 29 29 29 28
34 33 32 30 32 33 30 30 30 30 33 32 31 31 31 30 29 24 25 23 19 29 20 27 17 27 28 19 21 27 27 26 25 26 27 28 27 27
34 33 32 30 33 32 31 30 30 31 31 30 31 31 31 30 29 27 26 23 21 17 21 28 26 27 26 18 19 22 23 26 24 23 25 26 27 23
33 32 32 33 34 33 32 30 29 30 30 30 30 28 28 27 26 27 26 24 21 18 23 28 26 26 26 23 16 20 19 21 22 22 22 23 24 23
33 33 33 34 34 33 32 32 32 31 30 29 29 29 28 26 27 27 27 25 25 24 24 26 20 21 21 11 12 18 17 19 20 20 20 18 19 19
34 33 33 34 33 31 32 32 30 30 30 30 30 29 29 28 28 27 28 28 25 25 24 25 24 23 19 14 12 11 13 17 18 18 20 17 15 15
32 32 32 31 29 27 28 28 29 30 30 31 31 30 29 28 28 28 26 25 24 20 24 24 23 24 18 18 19 12 16 13 18 18 20 18 16 15
32 30 29 28 27 25 23 25 26 29 29 28 29 27 28 28 27 27 27 28 24 20 19 22 21 21 21 20 15 16 15 14 18 19 18 18 16 15
31 29 26 26 26 25 23 27 27 27 28 27 27 27 26 25 25 25 25 23 25 20 19 18 20 17 20 19 18 16 14 14 14 18 16 16 16 15
30 28 26 26 26 25 25 28 28 28 27 27 26 25 24 22 21 20 19 21 20 20 20 21 21 20 14 4 10 17 12 11 13 11 15 14 16 14
29 28 27 27 28 27 28 29 28 27 26 25 24 24 23 22 18 19 17 12 15 16 16 17 18 18 13 9 8 7 19 10 9 7 8 11 14 16
30 29 29 28 28 29 29 29 28 28 27 25 23 24 21 20 14 16 16 13 12 13 12 10 10 13 14 14 8 7 10 20 17 9 7 1 2 4
30 30 30 30 29 29 30 30 29 28 27 25 25 24 23 19 16 16 17 13 9 10 11 10 11 15 15 15 7 0 5 7 13 21 20 15 6 2
31 31 31 30 31 31 31 30 29 28 27 27 26 25 25 21 19 20 16 11 12 8 8 10 11 10 9 10 6 2 -0 1 3 6 9 19 21 20

GFSNE_sfc_dewp_249.txt.gz
Dewpoint
59 55 57 52 48 49 45 42 40 36 36 38 37 38 37 37 39 37 38 37 37 36 36 36 36 36 36 37 37 38 39 39 40 41 42 43 43 44
53 53 53 53 53 49 49 41 38 38 35 37 36 35 35 34 36 34 36 37 38 37 36 35 35 35 35 35 35 36 37 37 38 39 40 41 44 44
51 52 49 50 48 49 43 41 39 38 36 36 36 34 33 32 32 32 32 33 36 36 35 34 34 34 34 34 33 34 34 35 36 37 38 40 42 44
50 50 48 48 47 47 40 39 38 37 36 34 34 32 32 32 31 30 31 32 33 36 35 34 34 34 33 32 32 32 32 33 33 34 35 37 39 40
50 48 48 46 43 42 39 38 38 37 36 35 33 33 31 30 29 29 29 30 32 34 35 34 33 33 32 31 31 31 31 31 32 32 32 33 34 37
49 49 46 43 41 39 38 37 36 35 35 33 32 30 29 29 28 27 26 29 30 32 33 33 32 32 32 31 30 30 30 30 30 31 31 30 31 33
48 47 46 43 40 39 37 36 35 34 33 32 29 27 26 25 25 26 24 22 33 27 27 29 32 29 30 30 30 30 30 29 30 29 30 30 30 30
45 44 43 41 39 37 37 36 35 34 31 30 26 27 26 25 24 22 20 20 20 24 24 25 29 24 27 28 30 30 29 29 29 29 30 29 29 28
43 41 39 38 38 36 35 35 34 33 31 30 29 27 25 26 26 21 21 26 19 23 21 19 27 22 27 27 29 28 27 27 27 29 29 29 27 26
42 40 38 36 36 35 34 33 32 31 31 30 29 28 27 28 26 25 25 21 23 22 19 17 15 29 28 18 28 26 26 25 25 27 28 27 27 26
40 38 37 35 35 36 33 31 30 31 33 32 31 31 30 30 28 27 25 23 24 29 20 26 17 27 27 21 19 25 25 25 23 25 25 26 25 24
36 35 34 34 34 33 32 31 30 30 30 30 30 30 30 30 30 26 25 22 20 15 21 20 25 27 25 27 21 19 21 23 22 22 22 21 22 19
35 33 32 33 33 32 32 30 29 30 29 29 29 29 28 27 26 26 24 23 21 18 23 26 22 19 25 25 14 17 17 19 20 20 20 20 20 20
36 35 33 33 33 32 31 32 31 30 30 29 29 28 27 24 25 25 25 25 25 24 24 26 20 21 21 8 11 16 15 16 19 18 19 18 17 19
35 35 33 33 33 31 32 31 30 30 30 29 29 29 28 28 27 26 27 25 25 24 25 25 24 23 18 13 11 9 10 14 17 16 18 17 15 16
33 33 33 32 31 32 32 31 31 31 30 29 29 30 29 28 27 28 26 25 22 19 24 24 24 24 17 17 18 11 14 12 16 17 19 18 15 14
33 33 32 31 30 29 30 31 31 30 30 30 29 28 29 28 28 28 27 26 22 20 18 21 21 21 20 20 14 15 14 13 15 17 16 18 16 14
32 31 31 31 30 29 28 28 29 29 30 30 30 29 29 27 27 27 26 27 26 23 18 17 19 16 19 18 18 14 13 12 12 15 15 15 16 14
32 31 31 31 30 28 28 29 27 29 28 30 29 29 28 27 24 25 22 22 20 20 20 21 20 19 13 5 10 18 10 11 12 11 14 13 14 14
32 30 29 29 29 28 27 27 28 27 28 28 28 27 27 24 22 23 19 15 17 17 16 17 18 18 14 9 7 8 18 10 9 7 8 10 12 16
31 30 29 28 29 29 28 29 28 28 28 27 26 26 25 24 20 21 18 13 14 15 14 11 12 14 14 12 6 6 7 20 16 10 6 1 3 4
31 30 29 29 29 28 29 29 28 28 27 26 26 26 25 25 22 20 17 14 12 15 14 11 12 15 14 14 8 -0 3 5 12 20 20 16 7 2
31 30 29 30 30 29 29 28 27 27 27 26 26 26 25 23 23 21 18 16 14 12 11 10 11 9 8 10 6 2 -1 0 1 6 8 19 22 22

GFSNE_sfc_dewp_252.txt.gz
Dewpoint
61 60 59 56 55 55 51 50 47 39 38 38 37 38 40 40 40 38 37 38 37 36 36 36 36 36 36 36 36 36 37 38 39 40 40 42 43 44
61 58 54 54 55 55 51 50 50 46 38 38 37 37 36 35 37 38 37 38 37 36 35 35 35 34 34 34 34 35 35 36 37 37 38 39 42 43
56 57 54 53 52 52 50 46 44 43 37 35 34 35 34 34 34 34 36 37 37 35 35 35 34 33 32 32 32 32 33 34 34 35 36 37 40 41
54 54 51 51 50 50 48 43 40 38 36 34 34 33 32 32 31 32 32 33 35 35 35 34 33 32 31 31 31 31 31 32 32 33 33 34 36 37
53 53 49 49 48 47 45 41 39 37 36 34 33 33 32 31 30 30 31 32 33 36 35 34 33 32 31 31 31 31 31 30 30 30 31 31 32 33
53 51 49 48 47 45 42 39 37 37 36 34 33 31 30 30 29 28 30 31 31 32 34 33 32 31 31 31 31 31 30 30 30 30 30 29 29 30
52 51 49 49 45 44 43 39 37 35 34 34 32 30 29 28 28 29 28 30 31 30 32 32 30 29 30 31 30 29 28 29 30 30 30 28 28 28
50 48 48 45 42 40 39 37 37 35 34 33 30 30 29 29 28 28 28 30 28 30 30 30 31 29 29 31 28 27 27 28 29 30 28 28 28 27
48 46 44 44 42 40 37 36 34 34 32 32 31 30 28 28 28 26 26 27 27 28 28 28 29 28 29 29 27 27 26 26 27 27 27 26 26 26
47 47 45 41 41 39 37 35 34 33 32 31 33 31 30 30 29 28 28 27 28 27 26 26 25 29 29 26 26 26 26 24 23 24 23 24 22 23
48 46 44 42 37 37 36 33 32 32 33 32 32 31 30 30 29 28 27 28 27 29 27 27 27 29 29 28 29 26 24 24 22 23 22 22 23 21
41 40 38 38 35 35 34 32 30 30 30 30 31 31 31 31 29 29 29 26 24 25 26 27 27 28 27 29 29 26 25 23 21 22 21 20 22 18
38 37 37 35 35 34 33 32 30 30 29 29 29 29 29 29 28 28 28 27 24 24 27 28 26 26 25 25 25 25 24 23 23 21 20 18 20 19
37 37 36 36 35 33 32 31 30 29 29 29 28 28 27 27 27 27 27 26 26 26 28 28 26 25 24 20 23 23 23 23 23 21 20 16 17 18
35 34 34 34 33 32 31 30 29 30 29 28 28 27 28 28 28 27 27 26 25 25 26 27 26 24 22 21 22 22 21 23 22 21 18 14 15 16
33 34 33 33 32 32 31 30 30 30 29 29 29 29 29 28 27 27 25 25 24 24 24 24 25 23 23 23 22 21 20 21 20 18 18 16 13 14
34 33 33 33 32 32 31 31 31 32 31 31 30 29 28 27 27 28 27 26 24 22 22 22 21 21 21 22 22 20 20 17 16 16 13 18 15 12
34 33 32 32 31 30 30 31 32 32 31 31 30 29 28 28 28 28 28 26 26 23 22 21 21 21 22 21 19 16 18 14 16 15 13 16 16 15
34 33 33 32 31 31 31 31 31 32 32 31 30 30 29 28 28 28 28 28 27 26 23 22 21 21 20 19 19 18 12 14 16 17 16 14 14 15
34 33 33 32 32 32 32 32 32 32 31 31 31 30 30 29 28 28 28 27 25 23 22 22 22 22 20 18 19 20 17 17 17 18 17 15 15 14
33 33 33 32 32 32 32 32 32 31 32 31 31 30 30 29 28 28 27 24 22 22 22 21 21 19 18 18 19 19 19 20 19 18 17 17 16 15
33 33 32 32 32 31 31 32 31 31 30 30 30 30 29 29 27 25 25 21 22 22 23 18 16 19 20 19 18 15 17 18 17 18 21 20 19 15
34 32 31 31 31 30 30 30 30 30 29 29 28 28 28 27 26 25 24 23 21 20 18 16 16 17 18 18 16 15 12 14 16 18 20 19 23 23

GFSNE_sfc_dewp_255.txt.gz
Dewpoint
67 66 65 65 64 59 55 54 51 44 42 41 39 42 41 41 40 39 38 38 37 37 36 36 36 36 36 35 36 36 37 37 38 38 40 41 42 43
66 66 66 63 63 59 57 56 54 51 45 43 39 40 41 37 39 38 38 37 36 36 36 35 34 34 33 33 33 34 35 35 35 36 38 38 39 41
65 65 64 62 62 59 57 56 53 50 45 40 39 41 40 38 38 38 38 36 35 36 35 34 33 32 32 32 32 32 32 32 33 34 35 37 37 39
65 64 63 60 61 61 59 55 52 47 44 39 38 38 37 38 38 38 35 34 34 35 35 34 32 32 32 32 31 31 31 32 32 31 31 32 34 35
64 63 62 59 60 59 57 53 50 43 42 39 38 37 35 34 34 35 36 36 33 36 34 33 32 32 32 31 31 31 31 31 30 30 30 30 31 32
63 63 61 59 58 55 52 49 45 42 41 39 38 36 33 33 32 32 34 33 34 33 32 33 30 31 31 30 30 29 30 30 30 30 29 29 29 30
60 60 57 56 50 51 49 44 42 40 39 39 36 35 35 34 33 35 34 34 34 35 34 33 32 31 31 29 26 27 28 29 29 29 28 28 28 29
54 54 52 48 48 45 44 42 43 40 38 38 36 35 35 35 36 35 35 34 32 36 34 33 34 34 34 32 27 26 26 27 27 27 26 26 27 27
52 49 47 47 45 45 40 39 39 38 37 39 36 39 35 34 34 34 36 35 35 35 36 31 34 34 36 34 26 26 24 24 24 24 25 24 23 24
51 50 48 45 44 41 41 40 39 37 37 34 37 38 36 35 34 35 36 34 34 34 36 32 34 34 35 35 25 25 24 23 24 24 23 23 21 21
50 50 48 45 41 41 40 37 35 33 34 36 36 34 33 33 34 35 34 33 32 32 33 33 32 32 34 35 34 23 23 22 23 23 21 22 21 17
47 48 41 45 38 38 40 36 34 32 32 31 32 32 33 33 31 35 34 34 32 32 32 32 31 32 30 34 33 32 30 22 20 22 19 21 21 18
42 40 41 37 37 37 38 38 36 32 30 30 31 32 32 31 32 34 37 34 31 32 32 33 32 31 33 30 31 30 30 29 28 25 17 18 20 21
40 39 38 36 37 36 35 32 31 30 31 30 30 30 30 31 30 32 32 32 30 30 31 31 31 30 31 30 30 30 30 30 28 26 24 17 16 18
37 36 36 36 34 32 31 31 30 31 30 28 28 30 30 31 29 29 29 29 30 30 29 30 27 27 27 27 29 29 29 29 28 24 21 19 17 18
34 35 34 34 34 32 31 31 31 30 30 29 29 30 31 30 29 28 28 28 28 28 26 27 25 25 27 27 25 28 25 26 24 19 16 19 16 15
34 34 34 33 33 32 31 32 31 31 31 30 30 30 30 30 29 29 27 26 26 26 26 26 25 25 25 25 27 25 24 19 17 18 13 17 17 15
34 33 34 34 33 32 32 32 32 31 32 32 32 32 31 30 29 30 27 27 26 25 25 27 25 26 25 25 22 24 23 18 22 17 14 16 15 16
35 34 34 34 34 33 32 32 32 32 33 33 33 32 32 32 31 31 31 29 28 25 26 26 25 24 24 26 28 19 20 20 20 21 18 17 15 15
36 35 35 35 34 33 33 33 32 32 32 33 33 33 33 33 32 31 31 32 30 29 28 26 26 25 25 28 27 29 19 24 23 23 22 21 20 17
36 36 35 34 33 33 33 33 33 32 33 33 33 32 33 33 33 33 33 30 30 29 28 28 29 29 26 25 27 27 27 21 22 24 25 23 23 21
36 35 35 35 34 34 33 34 33 33 33 33 33 33 33 34 33 33 33 32 32 31 30 31 26 25 24 23 24 24 25 27 23 23 23 23 25 22
36 36 35 35 34 34 33 33 33 33 32 33 34 34 33 33 34 34 33 32 32 31 29 26 26 25 25 24 23 23 21 21 25 25 26 23 23 24

GFSNE_sfc_dewp_258.txt.gz
Dewpoint
69 69 66 64 65 63 60 57 55 50 46 47 43 46 44 43 42 40 39 39 39 39 38 37 37 36 35 35 35 36 37 37 37 38 39 40 41 42
67 68 68 66 65 66 64 60 59 57 52 48 45 45 44 40 40 41 39 38 38 37 37 35 35 34 34 33 34 34 34 35 35 35 36 37 39 40
67 67 68 68 66 66 64 61 60 59 56 48 46 45 45 42 39 41 37 36 36 36 36 34 33 33 33 32 32 33 33 33 33 33 33 34 35 36
67 67 67 66 67 67 63 62 61 61 54 48 45 44 44 43 41 41 36 33 34 36 35 34 33 32 32 32 32 32 31 31 32 31 31 32 33 34
67 67 67 66 66 64 63 62 60 58 53 49 43 43 43 42 41 39 37 36 33 36 35 34 33 33 32 31 30 31 31 31 30 30 30 30 31 31
67 68 67 66 65 64 62 62 59 54 50 45 43 41 40 40 40 37 36 36 34 31 33 33 32 32 31 30 29 29 30 30 29 29 29 29 29 30
66 66 66 64 57 60 60 58 55 51 46 43 40 39 37 37 37 39 38 39 37 37 35 32 31 32 31 28 28 27 27 28 27 26 26 27 28 28
64 64 63 53 52 48 48 48 52 50 44 41 38 37 37 36 37 39 38 37 34 39 37 37 37 37 34 33 27 25 24 25 25 25 24 23 25 25
64 61 54 54 51 53 43 44 43 42 40 43 40 38 36 36 37 38 37 35 36 38 37 34 37 38 38 31 27 25 23 23 23 23 23 22 22 22
61 57 54 51 52 49 45 44 44 43 41 44 42 39 38 38 38 38 37 39 39 38 38 33 35 36 36 37 26 25 23 23 23 22 22 22 20 20
56 55 53 50 44 43 45 41 39 36 38 39 39 38 37 37 37 38 37 35 34 34 38 35 34 35 35 35 35 24 23 22 22 20 20 21 22 21
53 53 44 49 39 40 46 42 41 37 35 36 36 36 37 35 35 37 36 35 34 34 36 36 34 33 31 35 35 32 30 22 21 20 17 20 22 24
47 47 47 40 38 40 43 46 45 39 34 34 34 34 35 34 37 39 38 39 36 35 36 36 35 34 35 32 33 34 33 32 30 27 20 19 19 21
45 44 42 37 38 39 40 37 34 34 35 33 33 34 32 32 35 38 38 39 36 35 34 36 35 34 35 34 32 33 32 32 30 28 27 21 20 21
42 39 37 37 37 35 34 33 32 34 32 31 32 32 32 33 34 33 33 33 33 34 34 34 33 33 33 31 32 32 31 32 31 27 24 23 20 20
34 37 35 35 35 33 32 33 33 32 31 31 30 32 32 32 31 31 31 32 31 32 31 30 30 29 29 30 30 31 29 29 29 23 19 20 20 18
34 34 34 33 32 33 33 34 33 34 32 32 33 31 29 30 31 32 31 31 29 28 28 27 25 26 27 27 28 28 28 26 21 19 17 17 19 16
35 34 33 33 33 33 33 33 33 33 33 32 32 30 30 30 30 31 31 30 29 28 27 28 27 27 25 25 25 27 27 25 25 19 16 17 17 19
35 34 34 34 34 34 34 33 34 33 34 33 32 31 31 31 30 30 33 32 31 28 28 27 26 24 25 30 30 22 26 23 23 22 20 19 18 17
36 35 34 35 35 35 34 34 35 34 33 32 33 32 32 32 32 34 33 34 32 29 29 27 26 25 27 32 32 32 21 27 26 27 25 22 21 19
36 36 36 36 35 35 34 34 34 33 34 34 34 33 33 33 34 34 35 32 33 30 29 29 31 31 31 31 30 29 29 21 25 27 27 26 25 24
36 36 36 36 35 35 34 34 33 33 34 34 34 33 33 34 34 34 34 34 34 35 33 33 32 30 29 27 27 31 29 29 24 23 22 24 27 25
37 37 36 35 35 35 34 34 33 33 33 34 33 33 33 33 34 34 35 34 35 34 34 30 31 30 29 27 27 29 29 27 27 27 27 24 24 24

GFSNE_sfc_dewp_261.txt.gz
Dewpoint
69 69 66 65 65 64 63 60 56 51 50 51 48 49 48 47 43 42 41 42 42 42 41 39 38 37 37 36 36 36 36 36 37 37 38 38 39 40
68 68 68 66 66 65 66 62 59 58 54 52 50 51 50 44 43 42 41 40 40 40 39 38 37 36 35 34 34 34 34 35 35 35 36 37 38 38
67 68 68 68 66 66 66 64 61 61 59 53 50 50 50 47 42 43 40 37 37 38 38 36 35 35 34 33 33 33 33 33 32 33 34 35 36 36
66 66 66 66 68 67 66 66 64 63 61 50 50 48 49 46 42 42 37 35 35 37 36 34 34 34 33 32 32 32 32 32 31 32 32 33 34 34
66 66 66 66 67 67 66 66 65 63 63 52 49 48 48 46 42 41 39 40 37 37 36 34 34 33 33 32 31 31 32 31 31 30 30 31 31 32
66 66 66 66 66 67 67 66 64 62 56 52 49 48 47 44 43 41 38 39 36 34 34 33 34 33 32 30 31 31 31 30 29 28 29 28 29 29
67 66 67 65 59 63 66 65 63 59 53 50 47 45 43 41 41 40 38 38 37 36 35 34 34 33 32 30 29 30 29 28 27 25 25 26 27 25
67 68 68 58 57 52 52 53 59 55 52 48 45 44 43 41 40 38 37 35 33 38 36 35 35 36 34 34 29 28 28 26 25 24 23 22 23 23
67 66 66 65 59 61 46 47 47 46 47 49 44 43 40 40 39 38 37 36 35 37 38 35 39 39 41 31 28 26 25 25 24 23 23 22 21 21
67 66 64 63 61 60 54 53 53 48 45 47 46 43 41 40 40 39 37 37 37 37 38 34 37 36 38 39 29 27 25 25 24 22 21 22 22 21
65 65 64 59 51 48 54 49 44 39 40 41 41 40 39 39 39 38 36 35 33 34 37 35 34 35 35 35 34 28 26 25 24 21 19 20 21 25
61 59 47 55 41 42 53 48 43 39 41 40 39 38 38 38 37 38 37 34 33 33 36 36 34 33 31 35 35 31 30 25 24 22 19 19 20 27
53 50 51 41 40 42 48 49 47 41 38 40 38 38 38 38 38 38 37 36 33 37 36 37 34 33 34 31 33 34 32 32 28 26 23 20 19 21
50 49 46 39 40 44 44 45 39 38 39 38 37 37 37 37 37 37 37 39 38 37 36 37 34 33 35 32 30 34 35 36 34 33 32 26 23 22
48 42 40 41 41 39 40 38 37 40 38 36 36 35 36 37 36 36 35 35 36 36 35 37 36 35 36 34 34 33 33 34 34 32 30 27 25 26
37 38 38 37 38 41 36 37 39 39 38 37 35 34 35 35 34 33 33 33 32 34 35 36 36 35 35 34 34 33 32 30 33 31 28 25 24 21
35 35 35 34 34 34 35 35 35 36 35 35 33 32 33 33 32 33 32 32 31 31 32 32 33 35 34 33 33 32 31 32 31 27 23 21 24 22
35 34 34 34 34 34 34 33 34 34 33 33 32 32 32 32 32 32 32 31 31 31 31 31 30 30 28 28 27 32 32 30 30 24 22 21 21 24
36 35 34 34 34 34 34 34 34 34 34 33 33 32 32 32 32 31 31 30 30 30 30 30 28 27 25 27 31 24 30 29 28 26 23 21 21 22
39 36 34 34 34 34 35 34 34 34 33 33 32 32 32 31 31 30 31 31 31 29 30 30 28 26 26 31 30 33 23 31 28 28 28 25 25 20
37 36 36 35 35 35 35 35 34 34 33 33 33 32 32 31 31 31 31 31 32 30 30 29 30 30 34 33 30 29 28 21 26 30 30 29 27 28
35 36 36 36 36 36 35 34 34 33 33 33 33 33 33 32 32 32 32 32 33 32 31 32 34 32 31 30 30 29 28 27 23 23 23 25 29 26
35 35 35 35 35 35 35 34 33 33 32 32 32 32 33 32 33 33 33 33 34 32 32 31 31 31 30 29 30 30 30 27 26 25 25 25 25 25

GFSNE_sfc_dewp_267.txt.gz
Dewpoint
59 59 60 63 62 61 61 57 54 48 48 47 45 48 50 49 50 49 48 47 46 46 46 46 46 44 43 42 42 41 40 40 39 39 39 40 39 39
62 62 60 58 63 63 62 58 57 55 52 49 47 47 50 48 48 48 46 47 45 44 43 43 43 42 41 41 40 39 39 39 39 38 38 38 38 38
64 63 63 61 58 62 63 62 58 56 54 51 50 48 49 49 47 46 45 45 43 43 42 42 41 41 40 40 38 38 37 37 37 37 37 37 37 37
64 65 63 63 64 59 62 63 61 59 57 49 50 47 47 49 45 43 43 42 41 42 41 41 40 39 39 38 37 36 35 35 35 35 35 36 36 36
63 64 65 64 62 64 62 61 62 60 58 50 48 47 46 44 43 42 40 40 40 41 40 39 39 38 38 37 36 35 34 33 33 33 33 33 33 33
64 64 64 65 65 63 63 63 61 60 58 51 46 48 46 42 42 39 37 38 37 38 38 38 38 38 38 37 37 35 34 33 33 32 31 31 30 28
64 64 64 63 58 61 64 64 63 61 60 55 45 46 43 42 40 40 38 37 37 38 36 37 36 37 37 37 35 35 34 33 32 31 30 29 27 26
65 64 64 56 56 51 51 53 61 63 61 56 49 47 45 43 44 41 37 35 34 37 35 33 35 33 35 35 34 35 34 32 31 30 29 29 27 26
65 65 64 64 56 62 50 46 49 50 54 58 52 50 46 44 43 40 38 39 38 36 35 32 33 33 35 34 35 35 35 32 30 29 27 27 27 25
66 65 65 64 62 61 61 56 56 57 56 56 58 53 51 47 45 43 41 39 34 35 36 32 33 33 34 34 35 35 34 33 30 29 28 27 26 25
65 65 65 64 56 50 61 60 58 57 45 45 48 47 46 44 45 44 39 36 33 33 35 33 33 33 33 33 35 35 34 32 30 28 27 27 26 26
65 65 50 63 51 46 62 60 56 54 45 46 46 43 44 44 42 45 41 38 35 32 35 33 33 33 30 32 32 33 32 31 30 29 27 26 26 24
63 62 63 46 45 45 53 60 59 49 42 47 45 44 45 45 43 45 41 42 38 35 36 35 33 33 32 30 30 31 30 29 29 27 27 26 24 22
61 61 53 45 45 43 49 50 43 43 47 43 42 42 42 42 42 43 41 42 43 38 36 36 34 33 31 29 29 30 30 29 29 27 27 25 26 25
43 45 45 44 43 41 43 43 39 47 45 42 42 42 42 43 41 41 39 39 36 36 37 36 34 34 33 30 29 29 28 28 28 26 25 24 25 26
41 42 34 37 39 40 36 38 47 47 46 45 44 43 40 39 39 41 38 39 36 34 36 36 34 33 32 31 31 29 30 28 29 26 27 27 27 25
38 34 34 34 35 34 34 37 36 37 39 38 38 37 38 38 39 39 39 37 37 35 33 33 33 33 33 33 31 31 31 30 31 30 30 29 29 27
35 34 33 34 35 35 36 36 36 37 37 37 37 37 36 37 37 38 38 36 36 34 33 33 33 33 31 32 34 31 31 30 31 31 29 28 27 27
34 35 34 33 34 34 35 35 35 37 35 38 37 37 36 37 36 36 36 36 36 34 34 34 33 31 29 28 29 33 30 31 30 29 29 26 25 25
33 33 33 33 34 34 34 35 35 34 35 37 36 36 36 36 35 34 35 35 34 33 32 33 32 32 31 29 28 29 31 31 30 29 27 27 25 26
34 33 33 34 34 34 35 35 34 34 35 35 35 35 35 35 35 35 34 34 34 33 31 31 33 33 32 32 28 25 24 30 31 28 27 24 22 21
34 34 34 33 33 33 34 34 34 34 34 34 34 34 34 34 34 33 33 32 32 32 31 32 32 32 32 31 28 27 23 24 28 29 28 27 25 20
35 35 34 34 34 33 33 33 33 33 34 34 33 33 33 32 32 32 32 32 32 32 30 29 31 32 31 31 28 27 25 23 24 23 24 26 27 26